User: anonymous   Login
Location: Allentsteig
(48.6833°N, 15.3167°E)
Time: 22:50:11
(UTC+00:00)
Language:

Cosmos 1634 Rocket - Orbit

View from above orbital plane
View from above orbital plane
View from above satellite
View from above satellite

Ground track
Ground track

The orbit data is extracted from the following two-line orbital elements,

1 15598U 85022B   20328.54930281 +.00000015 +00000-0 -49332-6 0  9996
2 15598 082.9383 253.9646 0021503 194.9636 338.0140 13.76577149792936
Epoch (UTC): 23 November 2020 13:10:59
Eccentricity: 0.0021503
inclination: 82.9383°
perigee height: 960 km
apogee height: 992 km
right ascension of ascending node: 253.9646°
argument of perigee: 194.9636°
revolutions per day: 13.76577149
mean anomaly at epoch: 338.0140°
orbit number at epoch: 79293

The dashed part of the orbit path shows where the satellite is in the earth's shadow,  

DLR